Location: St. Louis
(38.6270°N, 90.1994°W)
Time: 13:26:24
(UTC-06:00)

deb Explorer IX - Pass Details

Date: 09 December 2021
Orbit: 544 x 1082 km, 38.8° (Epoch: 16 January)

Event Time Altitude Azimuth Distance (km) Brightness Sun altitude
Rises 12:16:15 0° 281° (W) 2,976 ? 28.3°
Reaches altitude 10° 12:18:47 10° 275° (W) 1,988 ? 28.2°
Maximum altitude 12:23:07 46° 202° (SSW) 774 ? 28.1°
Drops below altitude 10° 12:27:05 10° 129° (SE) 1,818 ? 28.0°
Sets 12:29:18 0° 123° (ESE) 2,692 ? 27.9°
